Regional Weather Roundup
Issued by NWS Sioux Falls, SD

Home | Current Version | Previous Version | Graphics & Text | Print | Product List | Glossary On
Versions: 1 2 3 4 5 6 7 8 9 10 11 12 13 14 15 16 17 18 19 20 21 22 23 24 25 26 27 28 29 30 31 32 33 34 35 36 37 38 39 40 41 42 43 44 45 46 47 48 49 50
000
ASUS43 KFSD 221702
RWRFSD

WEATHER ROUNDUP FOR SE SOUTH DAKOTA/SW MINNESOTA/NW IOWA
NATIONAL WEATHER SERVICE SIOUX FALLS SD
1200 PM CDT MON SEP 22 2014

NOTE: "FAIR" INDICATES FEW OR NO CLOUDS BELOW 12,000 FEET WITH NO
SIGNIFICANT WEATHER AND OR OBSTRUCTIONS TO VISIBILITY.


SDZ038>040-050-052>070-221800-
SOUTHEAST SOUTH DAKOTA

CITY           SKY/WX    TMP DP  RH WIND       PRES   REMARKS
CHAMBERLAIN    MOSUNNY   69  49  48 S14       30.18F HAZE
HURON          SUNNY     70  47  43 MISG      30.20F
MADISON        FAIR      66  46  48 SW10      30.25F
MITCHELL       MOSUNNY   69  49  48 S12       30.23F
SIOUX FALLS    MOSUNNY   68  47  46 SW9       30.25F
WINNER         FAIR      75  44  33 S20       30.16F
YANKTON        MOSUNNY   68  50  52 S8        30.25F
$$

MNZ071-072-080-081-089-090-097-098-221800-
SOUTHWEST MINNESOTA

CITY           SKY/WX    TMP DP  RH WIND       PRES   REMARKS
FAIRMONT       SUNNY     66  46  48 SW5       30.28F
JACKSON        SUNNY     66  46  48 SW6       30.28F
LUVERNE        SUNNY     70  45  40 SW8       30.26F
MARSHALL       SUNNY     70  45  40 W9        30.24S
MONTEVIDEO     SUNNY     72  55  56 W7        30.23F
PIPESTONE      SUNNY     66  46  48 W8        30.25F
REDWOOD FALLS  SUNNY     68  49  50 W8        30.24F
TRACY          SUNNY     68  49  49 SW5       30.26F
WINDOM         SUNNY     66  48  52 S8        30.27F
WORTHINGTON    SUNNY     66  46  48 SW7       30.28F
$$

IAZ001>003-012>014-020>022-031-032-NEZ013-014-SDZ071-221800-
NORTHWEST IOWA

CITY           SKY/WX    TMP DP  RH WIND       PRES   REMARKS
CHEROKEE       SUNNY     67  52  59 S7        30.29F
DENISON        SUNNY     66  50  55 VRB5      30.29F
ESTHERVILLE    SUNNY     65  49  56 VRB7      30.28F
LE MARS        SUNNY     68  52  56 VRB6G13   30.29S
ORANGE CITY    SUNNY     68  46  45 SW6       30.28F
SHELDON        SUNNY     66  50  55 VRB7      30.26F
SIOUX CITY     SUNNY     68  51  54 VRB6      30.29F
SPENCER        SUNNY     67  48  50 SW8       30.28F
$$

ABBREVIATIONS USED IN REMARKS
   TC - TEMPERATURE IN CELSIUS
  WCI - WIND CHILL INDEX
   HX - HEAT INDEX
  VSB - VISIBILITY



USA.gov is the U.S. government's official web portal to all federal, state and local government web resources and services.